map of AHO home
Great Circle Mapper logo
AHO - Airport
Location
City:  Alghero, Sardinia, Italy
Name:Fertilia
ICAO:LIEA
IATA:AHO

Details
Type:Airport (Aerodrome, Airfield)
Use:Public/Civil, International (customs port of entry)
Latitude:4037'56"N (40.632133)
Longitude:817'27"E (8.290772)
Datum:WGS 1984
Elevation:87 ft (27 m)
Variation:2.05E (WMM2015 magnetic declination)
0.11 annual change
Runways:1
Longest:9843 × 148 ft (3000 × 45 m), paved

Time
Time Zone:UTC+1 (DST+2)
Local Time:

Weather
METAR:LIEA 290320Z 00000KT CAVOK 18/17 Q1016
TAF:LIEA 282300Z 2900/2924 VRB04KT CAVOK
TEMPO 2900/2905 0800 BCFG BKN002
BECMG 2908/2910 29010KT
BECMG 2918/2920 VRB04KT

Related Locations
Nearby:
Farthest:CHT: 12108 mi / 19486 km
Waitangi [Tuuta], Chatham Islands, NZ

Find:

   beyond  
but within

Other Information
Maps:
NOTAMs:
Links:
Sources:

  
flag of Italy
flag of Sardinia
  

Sectional Chart

Flight Planning
at skyvector.com

Satellite Image

Google Maps Satellite view

 

Copyright © 2004-2016 Karl L. Swartz. All rights reserved.
The Great Circle Mapper name and logo are trademarks of the Great Circle Mapper.
All other trademarks mentioned herein belong to their respective owners.
Please see credits for attibutions and further copyright information.

  Follow gcmap on Facebook Follow gcmap on Twitter Follow gcmap on Google+ GCmap on LinkedIn

hCard Microformat

Geo Microformat